Location: Gallinara
(44.0333°N, 8.2333°E)
Time: 06:54:53
(UTC+00:00)

Cosmos 2016 Rocket - Pass Details

Date: 25 September 2020
Orbit: 946 x 1001 km, 83.0° (Epoch: 23 October)

Event Time Altitude Azimuth Distance (km) Brightness Sun altitude
Rises 04:20:03 0° 347° (NNW) 3,633 7.0 -11.2°
Reaches altitude 10° 04:22:36 10° 344° (NNW) 2,680 6.2 -10.8°
Maximum altitude 04:28:31 55° 268° (W) 1,130 4.0 -9.7°
Drops below altitude 10° 04:34:25 10° 193° (SSW) 2,662 6.1 -8.7°
Sets 04:36:56 0° 188° (S) 3,606 6.8 -8.2°
